Regional Weather Roundup
Issued by NWS

Home | Current Version | Previous Version | Text Only | Print | Product List | Glossary On
Versions: 1 2 3 4 5 6 7 8 9 10 11 12 13 14 15 16 17 18 19 20 21 22 23 24 25 26 27 28
000
ASUS45 KBOU 250107
RWRCO

WEATHER ROUNDUP FOR COLORADO
NATIONAL WEATHER SERVICE DENVER/BOULDER CO
700 PM MDT SAT JUN 24 2017

NOTE: "FAIR" INDICATES FEW OR NO CLOUDS BELOW 12000 FEET WITH NO
SIGNIFICANT WEATHER AND/OR OBSTRUCTIONS TO VISIBILITY.

COZ001>005-013-030-031-250200-
...NORTHWEST COLORADO...

CITY           SKY/WX    TMP DP  RH WIND       PRES   REMARKS
CRAIG          FAIR      78  20  11 N8        30.26S
HAYDEN         FAIR      75  25  15 NW13      30.28S
MEEKER         FAIR      78  23  13 NE8       30.26S
RABBIT EARS PA FAIR      55  28  35 W9        30.55S
STEAMBOAT SPGS FAIR      74  29  19 W6        30.29R
WALDEN         FAIR      66  30  26 NE13      30.39S
$$

COZ006>008-011-250200-
...WEST CENTRAL VALLEYS...

CITY           SKY/WX    TMP DP  RH WIND       PRES   REMARKS
GRAND JUNCTION FAIR      91  23   8 W13       30.07S
MONTROSE       FAIR      87  19   8 NW12      30.14S
EAGLE          SUNNY     81  27  13 N15G26    30.24R
RIFLE          FAIR      85  23  10 N12       30.16S
DELTA          FAIR      92  26   9 W12G18    30.09R
NUCLA          FAIR      90   9   5 NW8       30.17S
$$

COZ017>023-064>068-250200-
...SOUTHWEST COLORADO...

CITY           SKY/WX    TMP DP  RH WIND       PRES   REMARKS
DURANGO        FAIR      86  10   6 NW20G28   30.16R
CORTEZ         FAIR      90   3   4 N12G24    30.12R
PAGOSA SPRINGS FAIR      84   5   5 W15       30.23R
TELLURIDE      FAIR      75  12   9 W13G18    30.42S
WOLF CREEK PAS FAIR      63  10  13 NW6       30.65S
$$

COZ009-010-012-014-032>034-037-058>063-250200-
...CENTRAL COLORADO...

CITY           SKY/WX    TMP DP  RH WIND       PRES   REMARKS
ASPEN          FAIR      76  21  12 NW9       30.31R
BUENA VISTA    FAIR      69  43  38 SE14G20   30.33R
COPPER MTN     FAIR      61  21  21 NW14G20   30.64R
BERTHOUD PASS  FAIR      41  30  65 SW6G21    30.67S
COTTONWOOD PAS FAIR      64  41  42 SE13G22   30.47R
GUNNISON       FAIR      79  17  10 W12       30.28S
KREMMLING      NOT AVBL
LEADVILLE      FAIR      66   9  10 NW14      30.46R
MONARCH PASS   FAIR      50  41  71 NE20      30.71F
SALIDA         FAIR      68  46  45 SE18G33   30.38R
SUNLIGHT       FAIR      59  19  21 NW6       30.59S
WILKERSON PASS PTSUNNY   48  41  76 NE14G23   30.61R
$$

COZ069>075-250200-
...SAN LUIS VALLEY/SANGRE DE CRISTO MOUNTAINS...

CITY           SKY/WX    TMP DP  RH WIND       PRES   REMARKS
ALAMOSA        FAIR      72  48  42 E14G24    30.23R
DEL NORTE      FAIR      80  34  18 SE10      30.26R
LA VETA PASS   CLOUDY    50  45  81 N21G29    30.61S
SAGUACHE       FAIR      81  10   7 NW20G32   30.27R
$$

COZ035-036-038>040-250200-
...NORTHERN COLORADO FRONT RANGE...

CITY           SKY/WX    TMP DP  RH WIND       PRES   REMARKS
DENVER INTL AP PTSUNNY   71  46  40 NE17      30.27R
DMNS CITY PARK   N/A     72  44  37 NE13G20   30.27R
AURORA         PTSUNNY   71  47  43 NE17G24   30.28R
FRONT RANGE AP PTSUNNY   73  46  38 NE16G22   30.28R
ERIE MUNI ARPT FAIR      73  43  33 NE6       30.27S
BOULDER MUN AP FAIR      72  43  35 CALM      30.28R
CENTENNIAL     PTSUNNY   72  45  37 N15G21    30.29R
BROOMFIELD     PTSUNNY   72  45  37 N9        30.30R
FORT COLLINS   FAIR      75  45  34 NE9       30.28R
LONGMONT       CLOUDY    76  45  33 NE5       30.28S
$$

COZ041-046-047-076>085-087-088-250200-
...PIKES PEAK/PALMER DIVIDE AND SOUTHERN FOOTHILLS...

CITY           SKY/WX    TMP DP  RH WIND       PRES   REMARKS
COLO. SPRINGS  PTSUNNY   69  45  41 SE8       30.32R
A. F. ACADEMY  PTSUNNY   68  45  43 S6        30.33R
SCHRIEVER AFB  NOT AVBL
CHEYENNE MTN   PTSUNNY   62  44  52 SW5       30.31R
ELLICOTT       FAIR     N/A N/A N/A SE7       30.31R
FALCON           N/A     64  42  44 S9        30.37R
FORT CARSON    FAIR      69  46  43 E3        30.29R
LIMON          PTSUNNY   70  45  40 SE12      30.28R
MONUMENT HILL  CLOUDY    63  45  51 S10       30.37S
CANON CITY     CLOUDY    73  50  43 E10       30.26S
WALSENBURG     CLOUDY    73  48  40 N16G24    30.29R
TRINIDAD       FAIR      74  46  36 MISG      30.24R
$$

COZ042>045-048>051-090-091-250200-
...NORTHEAST COLORADO...

CITY           SKY/WX    TMP DP  RH WIND       PRES   REMARKS
GREELEY ARPT   FAIR      72  47  40 E10       30.27R
AKRON          FAIR      70  47  43 E13       30.28R
BURLINGTON     PTSUNNY   73  51  46 SE8       30.25R
WRAY           FAIR      72  45  37 E12       30.26R
YUMA           FAIR      68  48  49 NE10      30.26S
STERLING       FAIR      73  45  35 NE8       30.24S
HOLYOKE        NOT AVBL
FORT MORGAN    FAIR      72  44  37 NE10      30.27S
$$

COZ086-089-092>099-250200-
...SOUTHEAST COLORADO...

CITY           SKY/WX    TMP DP  RH WIND       PRES   REMARKS
PUEBLO         CLOUDY    75  48  38 E8        30.22R
LA JUNTA       FAIR      77  49  37 SE10      30.20R
LAMAR          CLOUDY    77  48  35 SE8       30.18R
SPRINGFIELD      N/A     69  53  56 S10       30.24R
$$




USA.gov is the U.S. government's official web portal to all federal, state and local government web resources and services.